• Join FlightAware (Why Join?)
  • Login
  • US Flag 
05:20PM EDT


 

Airport Tracker/Info


-or-


 

Live Flight TrackerFlight Track Log ✈ AMF1324 ✈ 07-Nov-2013 ✈ KBUF - KBGM

Flight Track Log - Related Links

Times and Time Zones

All times are in EST time to prevent confusion due to time zone crossing. See the AMF1324 flight status page for this flight to view local times or setup timezone preferences in your user account.

Time Position Orientation Groundspeed Altitude Reporting Facility
EST Latitude Longitude Course Direction KTS MPH feet Rate Location/Type
06:27AM 42.9333 -78.7500 180° South 151 174 1,600  Level Buffalo TRACON
06:27AM 42.9000 -78.7500 180° South 170 196 3,000 2,160 Climbing Buffalo TRACON
06:28AM 42.8833 -78.7000 114° Southeast 202 232 4,900 1,740 Climbing Buffalo TRACON
06:29AM 42.8833 -78.6167 90° East 215 247 6,500 1,380 Climbing Buffalo TRACON
06:30AM 42.8694 -78.5231 101° East 220 253 8,200 1,320 Climbing Cleveland Center
06:31AM 42.8639 -78.4328 95° East 228 262 9,600 1,200 Climbing Cleveland Center
06:32AM 42.8578 -78.3369 95° East 234 269 10,700 1,020 Climbing Cleveland Center
06:33AM 42.8550 -78.2433 92° East 247 284 11,700 1,080 Climbing Cleveland Center
06:35AM 42.8536 -78.1450 91° East 256 295 12,900 600 Climbing Cleveland Center
06:36AM 42.8522 -78.0475 91° East 262 302 13,000  Climbing Cleveland Center
06:37AM 42.8453 -77.9414 95° East 279 321 13,000  Level Cleveland Center
06:38AM 42.8386 -77.8331 95° East 288 331 13,000  Level Cleveland Center
06:39AM 42.8325 -77.7236 94° East 287 330 13,000  Level Cleveland Center
06:40AM 42.8044 -77.6258 111° Southeast 277 319 13,000 -360 Level Cleveland Center
06:41AM 42.7619 -77.5381 123° Southeast 274 315 12,300 -780 Descending Cleveland Center
06:42AM 42.7139 -77.4514 127° Southeast 282 325 11,500 -660 Descending Cleveland Center
06:43AM 42.6686 -77.3639 125° Southeast 282 325 11,000 -300 Descending Cleveland Center
06:44AM 42.6311 -77.2753 120° Southeast 272 313 11,000  Level Cleveland Center
06:45AM 42.5967 -77.1864 118° Southeast 268 308 11,000 -60 Level Cleveland Center
06:46AM 42.5681 -77.0900 112° Southeast 275 316 10,900 -60 Descending Cleveland Center
06:47AM 42.5392 -76.9969 113° Southeast 270 311 10,900  Level Cleveland Center
06:48AM 42.5011 -76.8850 115° Southeast 273 314 11,000 -300 Climbing Cleveland Center
06:49AM 42.4603 -76.8006 123° Southeast 270 311 10,300 -900 Descending Cleveland Center
06:50AM 42.4194 -76.7250 126° Southeast 280 322 9,400 -720 Descending New York Center
06:51AM 42.3761 -76.6342 123° Southeast 286 329 9,000 -240 Descending New York Center
06:52AM 42.3367 -76.5464 121° Southeast 286 329 9,000  Level New York Center
06:53AM 42.2972 -76.4589 121° Southeast 281 323 9,000 -600 Level New York Center
06:54AM 42.2636 -76.3775 119° Southeast 281 323 7,800 -1,260 Descending New York Center
06:55AM 42.2642 -76.2794 90° East 255 293 6,600 -1,080 Descending New York Center
06:57AM 42.3161 -76.0931 69° East 254 292 4,600 -1,260 Descending New York Center
06:58AM 42.2689 -76.0361 138° Southeast 212 244 3,000 -840 Descending New York Center
06:59AM 42.2278 -75.9742 132° Southeast 207 238 3,000  Level New York Center